Regional Weather Roundup
Issued by NWS Jackson, KY

Home | Current Version | Previous Version | Text Only | Print | Product List | Glossary On
Versions: 1 2 3 4 5 6 7 8 9 10 11 12 13 14 15 16 17 18 19 20 21 22 23 24 25 26 27 28 29 30 31 32 33 34 35 36 37 38 39 40 41 42 43 44 45 46 47 48 49 50
000
ASUS43 KJKL 030710
RWRJKL

EAST KENTUCKY HOURLY WEATHER ROUNDUP
NATIONAL WEATHER SERVICE JACKSON KY
300 AM EDT THU SEP 03 2015

NOTE: "FAIR" INDICATES FEW OR NO CLOUDS BELOW 12,000 FEET WITH
NO SIGNIFICANT WEATHER AND/OR OBSTRUCTIONS TO VISIBILITY.

* THESE REPORTS ARE NOT UNDER NWS QUALITY CONTROL AND MAY NOT
  REPORT WEATHER SUCH AS PRECIPITATION AND FOG.

KYZ079-080-083-085-087-088-110-112-115-119-120-030800
...EASTERN KENTUCKY...

CITY           SKY/WX    TMP DP  RH WIND       PRES   REMARKS
JACKSON        CLEAR     71  66  84 CALM      30.05F
LONDON         PTCLDY    68  64  87 CALM      30.05F FOG
SOMERSET*      CLEAR     64  64 100 CALM      30.05F
MONTICELLO*    CLEAR     64  64 100 CALM      30.07S FOG
WILLIAMSBURG*    N/A     63  63 100 CALM      30.05F
MIDDLESBORO*   MOCLDY    66  65  97 CALM      30.06F
HARLAN APT*      N/A     64  64 100 MISG      30.07F
HAZARD APT*    SUNNY     66  66 100 CALM      30.04F FOG
BLACK MTN*       N/A     64  59  82 NW2         N/A
PIKEVILLE APT* CLEAR     70  68  94 S3        30.05F
BIG SANDY*     MOSUNNY   68  68  99 CALM      30.04F
MOREHEAD APT*  MOSUNNY   68  66  94 CALM      30.05F FOG
$$

KYZ035-036-041-042-044-050-067-078-099-030800
...CENTRAL KENTUCKY...

CITY           SKY/WX    TMP DP  RH WIND       PRES   REMARKS
MT STERLING*   CLEAR     66  66 100 CALM      30.04F FOG
FLEMING/MASON* CLEAR     66  66 100 W3        30.03F FOG
DANVILLE*      CLEAR     64  63  94 CALM      30.05F
RICHMOND*      CLEAR     68  64  88 CALM      30.04S
LEXINGTON      CLEAR     67  64  90 CALM      30.04S FOG
FRANKFORT      CLEAR     69  66  90 CALM      30.02F FOG
$$

KYZ091>093-OHZ055-061-077-WVZ005-015-034-035-042-030800
...SOUTHERN OHIO/WEST VIRGINIA...

CITY           SKY/WX    TMP DP  RH WIND       PRES   REMARKS
COVINGTON      MOCLDY    70  67  90 CALM      30.02F
COLUMBUS       CLOUDY    72  67  84 CALM      29.99F
DAYTON         PTCLDY    71  68  90 SW6       30.02F
WILMINGTON     CLEAR     65  63  93 CALM      30.02F FOG
HUNTINGTON     PTCLDY    67  67 100 MISG      30.02R FOG
CHARLESTON     CLEAR     67  66  97 CALM      30.01F FOG
PINEVILLE*       N/A     64  64 100 MISG      30.11F FOG
BECKLEY        CLEAR     63  60  90 CALM      30.09F FOG
BLUEFIELD      CLEAR     67  60  78 SW3       30.12F
$$

VAZ002-007-008-TNZ017-027-036-066-071-030800
...SOUTHWEST VIRGINIA/EAST TENNESSEE...

CITY           SKY/WX    TMP DP  RH WIND       PRES   REMARKS
WISE*          PTCLDY    66  64  94 CALM      30.12F
JONESVILLE*    MOSUNNY   64  64 100 CALM      30.07F
ABINGDON*      PTCLDY    67  63  85 CALM      30.08F
BRISTOL        PTCLDY    67  64  90 CALM      30.05F
KNOXVILLE      CLOUDY    73  71  93 CALM      30.00F
OAK RIDGE      MOCLDY    71  69  93 CALM      30.03F
CROSSVILLE     MOCLDY    69  67  93 CALM      30.08S
NASHVILLE      MOCLDY    75  70  84 CALM      30.02S
$$

...KEY TO REMARKS...
VSB - VISIBILITY IN MILES
WCI - WIND CHILL INDEX
HX  - HEAT INDEX

$$


USA.gov is the U.S. government's official web portal to all federal, state and local government web resources and services.